CUAVA-1 (49275 NORAD) Tracking and Keplerian Element Data

This shows tracking and keplerian element data for the satellite.

Feedback or suggestion? Click here.




ElementValue
Catalog49275
NameCUAVA-1
Epoch Orbit5142
Epoch Day242.48134796
Epoch Year2022
RAAN289.8805
Inclination51.6069
Eccentricity0.0011981
Argument of Perigee165.6488
Mean Anonmoly331.0164
Mean Motion16.49780575
Decay Rate0.24583722
L11 49275U 98067SU 22242.48134796 .24583722 12476-4 25807-3 0 9993
L22 49275 51.6069 289.8805 0011981 165.6488 331.0164 16.49780575 51426



Live tracking and technical data element details for CUAVA-1 (NORAD 49275). CUAVA-1 can be tracked NOW for your location showing map with azimuth and elevation plus other details from your city location.







IsCatalogInMostPopularTable: catalog: 49275, numindb: 118
Update: records affected: 1



GetName: 49275 CUAVA-1

Hit Count: updated at: Fri, 24 Jan 2025 23:52:46 GMT